FW7674 Weather Reports


time (UTC)temp
F
wind
direction
speed
knots
gust
knots
rain 1hr
in
rain 24hr
in
rain mn
in
humidity
%
barometer
mb
20260505130223 64 235 1.7 1.7 0.00 0.00 0.00 56 1011.5
20260505124713 64 244 1.7 1.7 0.00 0.00 0.00 56 1011.2
20260505124210 64 251 0.0 0.0 0.00 0.00 0.00 55 1011.2
20260505123705 64 237 4.3 5.2 0.00 0.00 0.00 55 1011.4
20260505123203 64 262 1.7 3.5 0.00 0.00 0.00 54 1011.1
20260505122659 64 273 0.9 0.9 0.00 0.00 0.00 54 1011.3
20260505122156 64 231 1.7 1.7 0.00 0.00 0.00 55 1011.2
20260505121653 64 266 0.0 0.9 0.00 0.00 0.00 55 1011.2
20260505121149 64 235 0.9 0.9 0.00 0.00 0.00 55 1011.2
20260505120645 64 220 0.9 0.9 0.00 0.00 0.00 55 1011.3
20260505120141 64 274 0.0 0.9 0.00 0.00 0.00 54 1011.3
20260505115635 64 237 1.7 1.7 0.00 0.00 0.00 54 1010.8
20260505115134 64 226 1.7 2.6 0.00 0.00 0.00 54 1010.8
20260505114630 64 218 2.6 2.6 0.00 0.00 0.00 54 1011.0
20260505114127 64 266 0.0 0.9 0.00 0.00 0.00 54 1011.0
20260505113623 65 260 0.9 0.9 0.00 0.00 0.00 53 1010.7
20260505113120 65 272 1.7 2.6 0.00 0.00 0.00 52 1010.9
20260505112616 65 242 1.7 1.7 0.00 0.00 0.00 52 1010.9
20260505112114 65 211 0.9 1.7 0.00 0.00 0.00 52 1010.9
20260505111608 65 210 0.9 1.7 0.00 0.00 0.00 52 1010.7
20260505111104 66 223 2.6 2.6 0.00 0.00 0.00 51 1010.8
20260505110601 66 213 1.7 2.6 0.00 0.00 0.00 51 1011.0
20260505102033 66 200 0.9 0.9 0.00 0.00 0.00 51 1011.1
20260505101532 67 240 2.6 3.5 0.00 0.00 0.00 51 1011.3
20260505101028 67 218 2.6 2.6 0.00 0.00 0.00 50 1011.3
20260505100525 67 231 1.7 1.7 0.00 0.00 0.00 49 1011.4
20260505100022 67 273 1.7 1.7 0.00 0.00 0.00 49 1011.5
20260505095518 67 233 3.5 3.5 0.00 0.00 0.00 48 1011.7
20260505095014 67 220 3.5 6.1 0.00 0.00 0.00 48 1011.7
20260505094511 68 219 2.6 3.5 0.00 0.00 0.00 47 1011.8
20260505094007 68 262 0.9 1.7 0.00 0.00 0.00 47 1011.8
20260505093503 68 244 1.7 2.6 0.00 0.00 0.00 46 1011.7
20260505093001 68 191 3.5 5.2 0.00 0.00 0.00 46 1011.8
20260505092458 68 273 1.7 2.6 0.00 0.00 0.00 45 1011.8
20260505091956 68 307 1.7 2.6 0.00 0.00 0.00 45 1012.0
20260505091453 68 260 3.5 3.5 0.00 0.00 0.00 44 1011.9
20260505090951 68 268 2.6 3.5 0.00 0.00 0.00 43 1011.8
20260505090449 69 291 3.5 5.2 0.00 0.00 0.00 43 1011.7
20260505085946 69 272 6.1 7.8 0.00 0.00 0.00 42 1011.8
20260505085444 69 258 2.6 2.6 0.00 0.00 0.00 41 1011.8
20260505084942 69 246 1.7 2.6 0.00 0.00 0.00 41 1012.2
20260505084440 69 269 1.7 1.7 0.00 0.00 0.00 41 1012.0
20260505083937 69 184 1.7 2.6 0.00 0.00 0.00 40 1012.0
20260505083435 69 184 2.6 2.6 0.00 0.00 0.00 40 1012.3
20260505082931 69 266 3.5 3.5 0.00 0.00 0.00 39 1012.3
20260505082427 69 149 2.6 3.5 0.00 0.00 0.00 38 1012.3
20260505081924 69 222 1.7 2.6 0.00 0.00 0.00 38 1012.2
20260505081421 69 222 2.6 3.5 0.00 0.00 0.00 38 1012.4
20260505080917 70 259 1.7 2.6 0.00 0.00 0.00 38 1012.3
20260505080413 70 185 3.5 6.1 0.00 0.00 0.00 38 1012.2
20260505075909 70 252 1.7 2.6 0.00 0.00 0.00 38 1012.4
20260505075406 70 292 1.7 2.6 0.00 0.00 0.00 38 1012.3
20260505074903 70 200 4.3 7.0 0.00 0.00 0.00 38 1012.4
20260505074400 70 229 4.3 6.1 0.00 0.00 0.00 38 1012.2
20260505073857 70 184 2.6 2.6 0.00 0.00 0.00 39 1012.4
20260505073355 71 239 0.9 0.9 0.00 0.00 0.00 39 1012.0
20260505072852 71 258 1.7 1.7 0.00 0.00 0.00 39 1011.8
20260505072348 70 209 2.6 2.6 0.00 0.00 0.00 40 1012.2
20260505071844 71 270 0.9 0.9 0.00 0.00 0.00 40 1012.3
20260505071341 70 255 0.9 0.9 0.00 0.00 0.00 41 1012.2
20260505070839 71 245 0.9 0.9 0.00 0.00 0.00 41 1012.2
20260505070335 71 267 1.7 1.7 0.00 0.00 0.00 41 1012.2
20260505065830 71 234 1.7 2.6 0.00 0.00 0.00 41 1011.9
20260505065327 71 200 1.7 1.7 0.00 0.00 0.00 41 1012.3
20260505064824 71 231 1.7 2.6 0.00 0.00 0.00 40 1012.0
20260505064321 71 278 0.9 1.7 0.00 0.00 0.00 41 1012.0
20260505063820 71 261 2.6 2.6 0.00 0.00 0.00 41 1012.0
20260505063315 71 272 0.9 1.7 0.00 0.00 0.00 41 1012.2
20260505062812 71 255 0.9 0.9 0.00 0.00 0.00 42 1011.9
20260505062310 71 256 0.9 0.9 0.00 0.00 0.00 42 1011.9
20260505061806 71 242 0.9 1.7 0.00 0.00 0.00 42 1012.2
20260505061304 71 277 0.0 0.0 0.00 0.00 0.00 43 1011.9
20260505060802 70 266 0.0 0.0 0.00 0.00 0.00 43 1011.8
20260505060259 71 272 0.0 0.0 0.00 0.00 0.00 43 1011.9
20260505055754 71 250 0.9 0.9 0.00 0.00 0.00 42 1011.9
20260505055250 71 215 0.9 0.9 0.00 0.00 0.00 42 1012.0
20260505054748 71 174 0.9 0.9 0.00 0.00 0.00 41 1011.8
20260505054245 71 230 1.7 1.7 0.00 0.00 0.00 41 1012.0
20260505053744 71 251 0.9 0.9 0.00 0.00 0.00 41 1011.8
20260505053240 71 237 0.9 0.9 0.00 0.00 0.00 41 1012.2
20260505052737 71 257 0.0 0.0 0.00 0.00 0.00 40 1011.8
20260505052234 72 196 0.9 0.9 0.00 0.00 0.00 39 1012.0
20260505051731 72 264 0.9 0.9 0.00 0.00 0.00 39 1012.3
20260505051229 72 240 0.9 0.9 0.00 0.00 0.00 39 1012.2
20260505050727 72 234 0.9 0.9 0.00 0.00 0.00 38 1012.6
20260505050225 72 226 0.9 1.7 0.00 0.00 0.00 38 1012.5
20260505041654 73 264 0.9 0.9 0.00 0.00 0.00 36 1012.4
20260505041152 73 191 0.9 1.7 0.00 0.00 0.00 36 1012.3
20260505040649 73 211 1.7 1.7 0.00 0.00 0.00 36 1012.3
20260505040146 73 210 0.9 1.7 0.00 0.00 0.00 36 1012.2
20260505035642 73 274 0.9 0.9 0.00 0.00 0.00 35 1012.4
20260505035138 73 224 1.7 1.7 0.00 0.00 0.00 36 1012.3
20260505034635 73 235 1.7 1.7 0.00 0.00 0.00 36 1012.0
20260505034132 73 224 1.7 2.6 0.00 0.00 0.00 35 1011.8
20260505033628 73 242 1.7 1.7 0.00 0.00 0.00 35 1011.8
20260505033127 73 258 2.6 2.6 0.00 0.00 0.00 35 1011.6
20260505032625 73 251 0.9 0.9 0.00 0.00 0.00 36 1011.5
20260505032121 73 254 1.7 2.6 0.00 0.00 0.00 36 1011.5
20260505031618 73 242 2.6 3.5 0.00 0.00 0.00 36 1011.6
20260505031114 73 240 1.7 1.7 0.00 0.00 0.00 36 1011.4
20260505030612 73 259 1.7 2.6 0.00 0.00 0.00 36 1011.4
20260505030107 73 238 1.7 1.7 0.00 0.00 0.00 36 1011.4
20260505025602 73 261 1.7 2.6 0.00 0.00 0.00 36 1011.3
20260505025057 73 261 2.6 2.6 0.00 0.00 0.00 36 1011.3
20260505024553 73 262 0.9 0.9 0.00 0.00 0.00 36 1011.3
20260505024051 73 223 2.6 5.2 0.00 0.00 0.00 35 1011.5
20260505023548 73 234 0.9 0.9 0.00 0.00 0.00 35 1011.4
20260505023045 73 240 2.6 5.2 0.00 0.00 0.00 35 1011.5
20260505022543 73 254 1.7 2.6 0.00 0.00 0.00 35 1011.3
20260505022040 73 268 0.9 1.7 0.00 0.00 0.00 34 1011.3
20260505021536 73 271 0.9 0.9 0.00 0.00 0.00 34 1011.0
20260505021033 73 252 1.7 2.6 0.00 0.00 0.00 34 1011.2
20260505020532 74 198 3.5 5.2 0.00 0.00 0.00 34 1011.1
20260505020030 74 257 1.7 2.6 0.00 0.00 0.00 35 1011.2
20260505015527 74 266 3.5 5.2 0.00 0.00 0.00 36 1011.4
20260505015024 74 237 4.3 5.2 0.00 0.00 0.00 36 1011.3
20260505014520 74 262 1.7 1.7 0.00 0.00 0.00 35 1011.2
20260505014018 74 272 3.5 5.2 0.00 0.00 0.00 35 1011.2
20260505013515 74 274 2.6 3.5 0.00 0.00 0.00 35 1011.2
20260505013012 74 271 2.6 5.2 0.00 0.00 0.00 35 1011.4
20260505012510 74 316 1.7 3.5 0.00 0.00 0.00 34 1011.3
20260505012007 74 268 5.2 7.0 0.00 0.00 0.00 36 1011.4
20260505011502 74 244 2.6 2.6 0.00 0.00 0.00 36 1011.1
20260505011000 74 259 1.7 2.6 0.00 0.00 0.00 36 1011.2
20260505010455 74 298 4.3 6.1 0.00 0.00 0.00 35 1011.2
20260505005951 75 333 5.2 6.1 0.00 0.00 0.00 35 1011.2
20260505005448 75 228 3.5 3.5 0.00 0.00 0.00 35 1011.2
20260505004946 75 270 2.6 3.5 0.00 0.00 0.00 35 1011.4
20260505004443 75 321 5.2 7.0 0.00 0.00 0.00 35 1011.4
20260505003940 75 266 0.9 1.7 0.00 0.00 0.00 34 1011.3
20260505003437 75 263 1.7 2.6 0.00 0.00 0.00 34 1011.4
20260505002933 75 318 2.6 5.2 0.00 0.00 0.00 34 1011.5
20260505002429 75 288 3.5 3.5 0.00 0.00 0.00 33 1011.6
20260505001928 75 231 3.5 5.2 0.00 0.00 0.00 33 1011.5
20260505001425 76 281 5.2 6.1 0.00 0.00 0.00 31 1011.4
20260505000922 76 249 3.5 5.2 0.00 0.00 0.00 32 1011.6
20260505000420 76 229 4.3 6.1 0.00 0.00 0.00 33 1011.7
20260504235916 76 220 2.6 3.5 0.00 0.00 0.00 32 1011.4
20260504235414 76 281 1.7 2.6 0.00 0.00 0.00 33 1011.6
20260504234910 76 230 4.3 6.1 0.00 0.00 0.00 32 1011.7
20260504234407 76 289 3.5 3.5 0.00 0.00 0.00 33 1011.7
20260504233904 76 284 0.9 0.9 0.00 0.00 0.00 33 1011.5
20260504233359 76 201 2.6 5.2 0.00 0.00 0.00 33 1011.6
20260504232856 77 175 4.3 5.2 0.00 0.00 0.00 33 1011.7
20260504232353 77 245 2.6 2.6 0.00 0.00 0.00 34 1011.6
20260504231850 77 279 0.9 1.7 0.00 0.00 0.00 33 1011.4
20260504231347 76 283 1.7 1.7 0.00 0.00 0.00 35 1011.8
20260504230843 75 257 1.7 1.7 0.00 0.00 0.00 35 1011.5
20260504230341 76 259 2.6 2.6 0.00 0.00 0.00 35 1011.9
20260504225839 76 294 1.7 1.7 0.00 0.00 0.00 34 1011.7
20260504225335 75 247 2.6 6.1 0.00 0.00 0.00 36 1011.7
20260504224833 76 250 2.6 3.5 0.00 0.00 0.00 37 1011.8
20260504224330 76 247 1.7 2.6 0.00 0.00 0.00 37 1011.8
20260504223826 76 253 5.2 7.0 0.00 0.00 0.00 37 1011.7
20260504223322 76 264 3.5 3.5 0.00 0.00 0.00 36 1011.9
20260504222819 75 161 4.3 6.1 0.00 0.00 0.00 37 1012.0
20260504222316 75 207 4.3 5.2 0.00 0.00 0.00 37 1011.9
20260504221814 77 275 3.5 3.5 0.00 0.00 0.00 37 1011.9
20260504221310 77 177 2.6 2.6 0.00 0.00 0.00 36 1011.9
20260504220807 76 195 3.5 5.2 0.00 0.00 0.00 36 1012.3
20260504220304 76 196 1.7 3.5 0.00 0.00 0.00 36 1012.3
20260504215801 76 212 5.2 7.8 0.00 0.00 0.00 37 1012.7
20260504215252 75 266 3.5 6.1 0.00 0.00 0.00 38 1012.5
20260504214748 76 208 5.2 6.1 0.00 0.00 0.00 38 1012.6
20260504214244 76 294 3.5 3.5 0.00 0.00 0.00 37 1012.8
20260504213741 75 182 5.2 6.1 0.00 0.00 0.00 39 1013.0
20260504213238 76 224 2.6 2.6 0.00 0.00 0.00 37 1012.7
20260504212735 75 169 2.6 2.6 0.00 0.00 0.00 37 1013.0
20260504212231 75 227 1.7 2.6 0.00 0.00 0.00 37 1013.0
20260504211729 75 227 6.1 8.7 0.00 0.00 0.00 37 1013.2
20260504211225 75 227 6.1 8.7 0.00 0.00 0.00 37 1013.2
20260504210722 75 244 0.9 1.7 0.00 0.00 0.00 37 1013.1
20260504210214 75 269 2.6 2.6 0.00 0.00 0.00 38 1013.2
20260504205711 74 266 5.2 7.0 0.00 0.00 0.00 38 1013.2
20260504205208 75 205 1.7 1.7 0.00 0.00 0.00 37 1013.2
20260504204706 75 232 3.5 5.2 0.00 0.00 0.00 36 1013.6
20260504204205 75 254 1.7 1.7 0.00 0.00 0.00 36 1013.4
20260504203703 75 207 1.7 2.6 0.00 0.00 0.00 35 1013.4
20260504203200 75 285 1.7 2.6 0.00 0.00 0.00 36 1013.2
20260504202654 76 250 7.8 8.7 0.00 0.00 0.00 35 1013.6
20260504202152 76 186 5.2 7.0 0.00 0.00 0.00 35 1013.6
20260504201649 75 226 2.6 2.6 0.00 0.00 0.00 35 1013.6
20260504201146 75 289 3.5 5.2 0.00 0.00 0.00 36 1013.6
20260504200643 74 238 2.6 3.5 0.00 0.00 0.00 37 1013.5
20260504200140 75 205 6.1 9.6 0.00 0.00 0.00 36 1013.6
20260504195636 75 253 5.2 6.1 0.00 0.00 0.00 36 1013.6
20260504195132 75 281 1.7 2.6 0.00 0.00 0.00 38 1013.6
20260504194629 74 220 6.1 7.8 0.00 0.00 0.00 38 1013.2
20260504194125 74 206 3.5 6.1 0.00 0.00 0.00 39 1013.4
20260504193622 74 276 0.9 1.7 0.00 0.00 0.00 40 1013.5
20260504193120 74 278 3.5 3.5 0.00 0.00 0.00 40 1013.4
20260504192618 74 201 3.5 5.2 0.00 0.00 0.00 39 1013.2
20260504192116 74 260 1.7 2.6 0.00 0.00 0.00 40 1013.3
20260504191614 73 227 1.7 2.6 0.00 0.00 0.00 40 1013.5
20260504191110 74 241 1.7 1.7 0.00 0.00 0.00 40 1013.0
20260504190606 73 221 2.6 2.6 0.00 0.00 0.00 40 1012.9
20260504185559 73 223 0.9 1.7 0.00 0.00 0.00 41 1013.4
20260504185055 73 248 2.6 3.5 0.00 0.00 0.00 42 1013.5
20260504184551 73 224 3.5 3.5 0.00 0.00 0.00 41 1013.5
20260504184041 73 289 3.5 5.2 0.00 0.00 0.00 42 1013.8
20260504183538 72 294 3.5 6.1 0.00 0.00 0.00 43 1013.8
20260504183036 73 247 2.6 2.6 0.00 0.00 0.00 42 1013.9
20260504182533 72 276 2.6 2.6 0.00 0.00 0.00 43 1013.8
20260504182031 73 271 2.6 3.5 0.00 0.00 0.00 42 1013.7
20260504181527 72 245 4.3 5.2 0.00 0.00 0.00 43 1013.8
20260504181026 73 262 5.2 6.1 0.00 0.00 0.00 42 1013.8
20260504180524 72 278 1.7 2.6 0.00 0.00 0.00 44 1013.8
20260504180023 71 314 3.5 5.2 0.00 0.00 0.00 45 1013.8
20260504175519 72 306 2.6 5.2 0.00 0.00 0.00 45 1014.1
20260504175017 72 243 2.6 3.5 0.00 0.00 0.00 46 1013.8
20260504174514 71 202 4.3 5.2 0.00 0.00 0.00 46 1013.9
20260504174011 72 279 4.3 5.2 0.00 0.00 0.00 46 1013.8
20260504173508 72 264 2.6 2.6 0.00 0.00 0.00 46 1013.7
20260504173005 71 277 1.7 2.6 0.00 0.00 0.00 47 1013.3
20260504172501 71 257 0.0 0.9 0.00 0.00 0.00 48 1013.2
20260504171957 71 244 2.6 2.6 0.00 0.00 0.00 48 1013.1
20260504171454 71 183 1.7 2.6 0.00 0.00 0.00 48 1013.1
20260504170951 70 206 2.6 2.6 0.00 0.00 0.00 48 1013.2
20260504170447 70 193 4.3 7.0 0.00 0.00 0.00 48 1013.2
20260504160408 70 223 1.7 1.7 0.00 0.00 0.00 48 1013.4
20260504150832 70 231 3.5 5.2 0.00 0.00 0.00 45 1012.9
20260504150328 70 228 2.6 3.5 0.00 0.00 0.00 44 1012.9
20260504141258 71 261 2.6 2.6 0.00 0.00 0.00 42 1012.3
20260504140755 71 256 0.9 1.7 0.00 0.00 0.00 42 1012.2
20260504140250 71 212 2.6 2.6 0.00 0.00 0.00 41 1012.0